1494003600.08,37970,16.31,73622.3,0.05,-1.17,-1.33,0,*74
1494003601.26,37971,16.31,73620.0,0.05,-1.17,-1.33,0,*75
1494003602.47,37972,16.31,73618.8,0.05,-1.17,-1.39,0,*7C
1494003603.68,37973,16.31,73618.8,0.05,-1.21,-1.39,0,*78
1494003604.88,37974,16.31,73620.5,0.05,-1.29,-1.39,0,*77
1494003606.06,37975,16.31,73620.5,0.05,-1.21,-1.33,0,*74
1494003607.27,37976,16.31,73622.0,0.05,-1.21,-1.39,0,*7D
1494003608.47,37977,16.31,73616.0,0.01,-1.33,-1.39,0,*7B
1494003609.68,37978,16.31,73614.8,0.05,-1.21,-1.39,0,*73
1494003610.86,37979,16.31,73620.8,0.05,-1.21,-1.33,0,*78
1494003612.03,37980,16.31,73616.3,0.05,-1.21,-1.33,0,*7E
1494003613.22,37981,16.31,73618.8,0.05,-1.17,-1.29,0,*71
1494003614.41,37982,16.31,73618.5,0.05,-1.09,-1.29,0,*7D
1494003615.62,37983,16.31,73616.8,0.05,-1.05,-1.29,0,*70
1494003616.8,37984,16.31,73614.0,0.05,-1.17,-1.29,0,*74
1494003618.0,37985,16.31,73614.0,0.05,-1.09,-1.21,0,*72
1494003619.18,37986,16.31,73616.0,0.05,-1.17,-1.33,0,*7D
1494003620.39,37987,16.31,73616.5,0.05,-1.29,-1.39,0,*7B
1494003621.56,37988,16.31,73618.8,0.05,-1.21,-1.33,0,*76
1494003622.74,37989,16.31,73622.0,0.01,-1.21,-1.33,0,*73
1494003623.92,37990,16.31,73618.8,0.05,-1.17,-1.21,0,*79
1494003625.12,37991,16.31,73612.8,0.05,-1.09,-1.29,0,*7F
1494003626.3,37992,16.31,73614.0,0.05,-1.21,-1.33,0,*7D
1494003627.51,37993,16.31,73618.0,0.05,-1.21,-1.39,0,*76
1494003628.69,37994,16.31,73618.5,0.05,-1.17,-1.33,0,*7E
1494003629.87,37995,16.31,73620.5,0.05,-1.17,-1.33,0,*7F
1494003631.05,37996,16.31,73616.8,0.05,-1.17,-1.29,0,*77
1494003632.25,37997,16.31,73620.5,0.05,-1.09,-1.21,0,*71
1494003633.43,37998,16.31,73620.0,0.05,-1.17,-1.21,0,*71
1494003634.64,37999,16.31,73620.5,0.05,-1.09,-1.21,0,*7F
1494003635.84,38000,16.31,73620.0,0.05,-1.09,-1.21,0,*79
1494003637.04,38001,16.31,73622.0,0.05,-1.09,-1.21,0,*78
1494003638.27,38002,16.31,73620.0,0.07,-1.05,-1.25,0,*71
1494003639.5,38003,16.31,73620.8,0.07,-1.13,-1.25,0,*77
1494003640.73,38004,16.31,73620.0,0.07,-1.13,-1.25,0,*70
1494003641.95,38005,16.31,73620.0,0.07,-1.13,-1.25,0,*71
1494003643.19,38006,16.31,73620.0,0.07,-1.05,-1.17,0,*74
1494003644.39,38007,16.31,73624.0,0.09,-1.05,-1.17,0,*7B
1494003645.65,38008,16.31,73620.0,0.07,-1.05,-1.13,0,*7E
1494003646.87,38009,16.31,73614.0,0.09,-1.05,-1.13,0,*71
1494003648.1,38010,16.31,73616.3,0.07,-1.13,-1.17,0,*74
1494003649.34,38011,16.31,73616.0,0.07,-1.05,-1.17,0,*72
1494003650.57,38012,16.31,73618.3,0.07,-1.05,-1.17,0,*71
1494003651.78,38013,16.31,73620.5,0.09,-1.05,-1.17,0,*7E
1494003653.03,38014,16.31,73616.0,0.07,-1.05,-1.13,0,*73
1494003654.27,38015,16.31,73620.8,0.07,-1.05,-1.17,0,*76
1494003655.5,38016,16.31,73626.5,0.07,-1.13,-1.25,0,*73
1494003656.7,38017,16.31,73622.0,0.07,-1.17,-1.29,0,*7A
1494003657.92,38018,16.31,73618.5,0.07,-1.17,-1.29,0,*75
1494003659.15,38019,16.31,73620.3,0.07,-1.17,-1.35,0,*79
1494003660.36,38020,16.31,73620.0,0.09,-1.17,-1.35,0,*7D
1494003661.6,38021,16.31,73620.5,0.07,-1.17,-1.35,0,*72
1494003662.8,38022,16.31,73618.5,0.07,-1.25,-1.29,0,*7D
1494003664.04,38023,16.31,73618.8,0.07,-1.05,-1.25,0,*72
1494003665.24,38024,16.31,73620.0,0.07,-1.17,-1.25,0,*76
1494003666.42,38025,16.31,73622.3,0.09,-1.17,-1.29,0,*75
1494003667.65,38026,16.31,73626.0,0.07,-1.13,-1.29,0,*7C
1494003668.89,38027,16.31,73624.3,0.07,-1.25,-1.35,0,*75
1494003670.12,38028,16.31,73620.3,0.07,-1.25,-1.35,0,*7A
1494003671.33,38029,16.31,73620.3,0.09,-1.17,-1.35,0,*74
1494003672.56,38030,16.31,73616.3,0.07,-1.17,-1.35,0,*72
1494003673.78,38031,16.31,73626.3,0.07,-1.17,-1.29,0,*7E
1494003675.01,38032,16.31,73622.0,0.07,-1.13,-1.29,0,*79
1494003676.23,38033,16.31,73620.8,0.07,-1.13,-1.25,0,*74
1494003677.44,38034,16.31,73622.8,0.09,-1.17,-1.35,0,*78
1494003678.67,38035,16.31,73622.8,0.07,-1.13,-1.29,0,*7E
1494003679.91,38036,16.31,73624.3,0.07,-1.17,-1.35,0,*74
1494003681.14,38037,16.31,73622.0,0.07,-1.25,-1.35,0,*74
1494003682.32,38038,16.31,73622.5,0.09,-1.25,-1.29,0,*78
1494003683.53,38039,16.31,73622.3,0.07,-1.17,-1.29,0,*76
1494003684.77,38040,16.31,73626.3,0.07,-1.17,-1.35,0,*75
1494003686.02,38041,16.31,73624.3,0.07,-1.13,-1.35,0,*70
1494003687.26,38042,16.31,73620.5,0.07,-1.17,-1.35,0,*77
1494003688.47,38043,16.31,73618.0,0.07,-1.17,-1.29,0,*7B
1494003689.71,38044,16.31,73620.0,0.07,-1.17,-1.35,0,*71
1494003690.89,38045,16.31,73616.3,0.09,-1.17,-1.29,0,*73
1494003692.13,38046,16.31,73618.0,0.07,-1.17,-1.35,0,*73
1494003693.37,38047,16.31,73616.5,0.07,-1.17,-1.35,0,*72
1494003694.61,38048,16.31,73620.3,0.07,-1.17,-1.35,0,*7D
1494003695.79,38049,16.31,73620.0,0.09,-1.17,-1.29,0,*7F
1494003697.03,38050,16.31,73624.0,0.07,-1.17,-1.35,0,*74
1494003698.24,38051,16.31,73622.5,0.07,-1.17,-1.29,0,*78
1494003699.45,38052,16.31,73622.8,0.09,-1.17,-1.35,0,*78
1494003700.65,38053,16.31,73620.5,0.09,-1.17,-1.35,0,*79
1494003701.91,38054,16.31,73622.0,0.07,-1.13,-1.35,0,*74
1494003703.12,38055,16.31,73622.5,0.09,-1.17,-1.35,0,*7F
1494003704.32,38056,16.31,73622.5,0.09,-1.25,-1.35,0,*7D
1494003705.56,38057,16.31,73622.5,0.07,-1.29,-1.39,0,*72
1494003706.74,38058,16.31,73620.0,0.09,-1.17,-1.29,0,*7F
1494003708.0,38059,16.31,73622.8,0.07,-1.13,-1.35,0,*79
1494003709.23,38060,16.31,73620.8,0.07,-1.17,-1.35,0,*77
1494003710.45,38061,16.31,73616.0,0.07,-1.17,-1.29,0,*7B
1494003711.68,38062,16.31,73618.5,0.07,-1.17,-1.35,0,*75
1494003712.92,38063,16.31,73620.8,0.07,-1.25,-1.35,0,*75
1494003714.15,38064,16.31,73622.8,0.07,-1.17,-1.35,0,*73
1494003715.35,38065,16.31,73626.5,0.09,-1.13,-1.29,0,*75
1494003716.59,38066,16.31,73624.3,0.07,-1.05,-1.29,0,*7F
1494003717.79,38067,16.31,73628.3,0.09,-1.05,-1.29,0,*70
1494003718.99,38068,16.31,73624.3,0.09,-1.13,-1.29,0,*78
1494003720.2,38069,16.25,73622.5,0.09,-1.17,-1.39,0,*7C
1494003721.44,38070,16.31,73628.0,0.07,-1.17,-1.47,0,*73
1494003722.64,38071,16.31,73624.8,0.09,-1.25,-1.39,0,*74
1494003723.85,38072,16.31,73624.3,0.09,-1.25,-1.39,0,*77
1494003725.08,38073,16.31,73620.8,0.07,-1.25,-1.39,0,*78
1494003726.29,38074,16.31,73622.8,0.09,-1.17,-1.39,0,*70
1494003727.52,38075,16.31,73620.8,0.07,-1.17,-1.47,0,*76
1494003728.73,38076,16.31,73622.3,0.09,-1.29,-1.39,0,*7F
1494003729.93,38077,16.31,73620.3,0.09,-1.25,-1.47,0,*7B
1494003731.13,38078,16.25,73618.3,0.09,-1.25,-1.47,0,*74
1494003732.34,38079,16.25,73614.8,0.09,-1.25,-1.39,0,*7C
1494003733.54,38080,16.31,73616.8,0.09,-1.25,-1.35,0,*76
1494003734.74,38081,16.25,73616.3,0.09,-1.25,-1.35,0,*77
1494003735.95,38082,16.25,73616.3,0.09,-1.17,-1.35,0,*75
1494003737.15,38083,16.31,73620.8,0.11,-1.21,-1.25,0,*49
1494003738.39,38084,16.31,73622.5,0.07,-1.17,-1.35,0,*7D
1494003739.59,38085,16.31,73622.5,0.09,-1.25,-1.35,0,*73
1494003740.82,38086,16.31,73620.0,0.09,-1.35,-1.39,0,*7D
1494003742.03,38087,16.31,73618.3,0.09,-1.29,-1.35,0,*7D
1494003743.25,38088,16.31,73618.5,0.09,-1.35,-1.39,0,*73
1494003744.48,38089,16.31,73618.8,0.09,-1.35,-1.47,0,*7B
1494003745.68,38090,16.25,73616.0,0.09,-1.39,-1.55,0,*7C
1494003746.89,38091,16.31,73622.5,0.09,-1.47,-1.63,0,*71
1494003748.12,38092,16.25,73618.3,0.07,-1.39,-1.63,0,*75
1494003749.33,38093,16.31,73620.0,0.09,-1.39,-1.55,0,*7F
1494003750.53,38094,16.31,73618.8,0.09,-1.47,-1.67,0,*70
1494003751.74,38095,16.31,73614.5,0.09,-1.39,-1.67,0,*78
1494003752.98,38096,16.31,73616.5,0.07,-1.39,-1.55,0,*74
1494003754.21,38097,16.31,73614.8,0.07,-1.39,-1.51,0,*71
1494003755.47,38098,16.25,73614.3,0.07,-1.35,-1.47,0,*75
1494003756.68,38099,16.31,73616.0,0.09,-1.29,-1.39,0,*7E
1494003757.88,38100,16.31,73616.3,0.09,-1.29,-1.39,0,*7F
1494003759.09,38101,16.31,73612.3,0.09,-1.17,-1.35,0,*7F
1494003760.27,38102,16.31,73614.5,0.09,-1.17,-1.25,0,*7D
1494003761.45,38103,16.31,73614.0,0.09,-1.17,-1.29,0,*70
1494003762.64,38104,16.25,73608.3,0.09,-1.13,-1.25,0,*7F
1494003763.84,38105,16.25,73608.8,0.09,-1.13,-1.25,0,*7E
1494003765.1,38106,16.31,73610.5,0.07,-1.13,-1.35,0,*72
1494003766.31,38107,16.31,73612.8,0.07,-1.17,-1.29,0,*7A
1494003767.49,38108,16.31,73612.0,0.09,-1.17,-1.29,0,*7B
1494003768.69,38109,16.31,73612.3,0.09,-1.13,-1.25,0,*72
1494003769.89,38110,16.31,73614.0,0.09,-1.13,-1.25,0,*7A
1494003771.12,38111,16.31,73614.5,0.07,-1.05,-1.25,0,*72
1494003772.32,38112,16.31,73616.0,0.09,-1.13,-1.29,0,*74
1494003773.52,38113,16.25,73612.5,0.09,-1.05,-1.29,0,*72
1494003774.72,38114,16.25,73612.8,0.09,-1.13,-1.17,0,*7F
1494003775.93,38115,16.31,73614.5,0.09,-1.05,-1.25,0,*78
1494003777.13,38116,16.31,73616.5,0.09,-1.05,-1.17,0,*7A
1494003778.33,38117,16.31,73614.3,0.09,-1.05,-1.25,0,*7A
1494003779.53,38118,16.31,73616.3,0.09,-1.05,-1.25,0,*75
1494003780.73,38119,16.31,73616.5,0.09,-1.05,-1.25,0,*74
1494003781.94,38120,16.31,73616.0,0.09,-1.05,-1.17,0,*7F
1494003783.14,38121,16.31,73618.0,0.09,-1.05,-1.17,0,*7E
1494003784.34,38122,16.31,73618.8,0.09,-1.05,-1.25,0,*7C
1494003785.55,38123,16.25,73616.8,0.09,-1.05,-1.17,0,*7C
1494003786.75,38124,16.25,73616.5,0.09,-1.01,-1.25,0,*7E
1494003787.94,38125,16.25,73616.5,0.09,-1.01,-1.25,0,*7F
1494003789.14,38126,16.31,73618.5,0.09,-1.05,-1.25,0,*78
1494003790.35,38127,16.31,73616.5,0.09,-1.05,-1.25,0,*79
1494003791.55,38128,16.31,73622.5,0.09,-1.05,-1.25,0,*76
1494003792.74,38129,16.31,73622.0,0.09,-1.13,-1.25,0,*70
1494003793.98,38130,16.25,73620.0,0.11,-1.09,-1.21,0,*4E
1494003795.2,38131,16.31,73622.8,0.11,-1.13,-1.25,0,*40
1494003796.44,38132,16.31,73620.5,0.11,-1.33,-1.43,0,*41
1494003797.69,38133,16.31,73620.3,0.11,-1.35,-1.43,0,*46
1494003798.92,38134,16.31,73618.3,0.11,-1.35,-1.51,0,*42
1494003800.18,38135,16.25,73616.3,0.11,-1.35,-1.47,0,*44
1494003801.38,38136,16.25,73614.8,0.09,-1.39,-1.55,0,*71
1494003802.62,38137,16.31,73618.8,0.07,-1.47,-1.51,0,*73
1494003803.82,38138,16.31,73618.0,0.09,-1.35,-1.51,0,*77
1494003805.02,38139,16.31,73618.8,0.09,-1.29,-1.39,0,*75
1494003806.26,38140,16.25,73616.0,0.07,-1.29,-1.39,0,*75
1494003807.49,38141,16.31,73618.3,0.07,-1.29,-1.39,0,*74
1494003808.7,38142,16.31,73622.3,0.09,-1.29,-1.39,0,*79
1494003809.94,38143,16.25,73616.0,0.07,-1.17,-1.35,0,*77
1494003811.15,38144,16.25,73616.0,0.09,-1.17,-1.35,0,*7E
1494003812.33,38145,16.31,73620.3,0.09,-1.17,-1.29,0,*72
1494003813.54,38146,16.25,73616.3,0.07,-1.17,-1.29,0,*7F
1494003814.72,38147,16.31,73618.8,0.09,-1.29,-1.29,0,*7D
1494003815.95,38148,16.25,73618.0,0.07,-1.17,-1.35,0,*7C
1494003817.13,38149,16.25,73614.0,0.09,-1.25,-1.29,0,*7F
1494003818.34,38150,16.31,73618.5,0.07,-1.17,-1.29,0,*78
1494003819.55,38151,16.25,73616.0,0.09,-1.17,-1.35,0,*7A
1494003820.73,38152,16.31,73618.0,0.09,-1.17,-1.29,0,*74
1494003821.94,38153,16.31,73620.8,0.09,-1.17,-1.35,0,*78
1494003823.16,38154,16.31,73616.5,0.09,-1.13,-1.35,0,*7B
1494003824.37,38155,16.25,73616.8,0.09,-1.13,-1.29,0,*77
1494003825.55,38156,16.25,73614.5,0.09,-1.17,-1.29,0,*70
1494003826.77,38157,16.31,73616.0,0.09,-1.13,-1.35,0,*78
1494003828.03,38158,16.25,73618.3,0.07,-1.13,-1.35,0,*79
1494003829.24,38159,16.31,73616.8,0.11,-1.21,-1.33,0,*48
1494003830.46,38160,16.25,73616.3,0.11,-1.09,-1.25,0,*4F
1494003831.67,38161,16.31,73616.0,0.09,-1.17,-1.35,0,*79
1494003832.9,38162,16.31,73616.0,0.07,-1.25,-1.35,0,*75
1494003834.1,38163,16.31,73618.5,0.09,-1.25,-1.35,0,*7A
1494003835.28,38164,16.25,73616.5,0.09,-1.17,-1.29,0,*71
1494003836.52,38165,16.25,73616.0,0.07,-1.17,-1.35,0,*73
1494003837.75,38166,16.31,73616.8,0.09,-1.13,-1.35,0,*7A
1494003838.93,38167,16.31,73616.8,0.09,-1.17,-1.29,0,*72
1494003840.13,38168,16.25,73618.0,0.09,-1.13,-1.29,0,*79
1494003841.31,38169,16.25,73614.5,0.09,-1.17,-1.29,0,*7C
1494003842.51,38170,16.25,73618.8,0.09,-1.25,-1.35,0,*78
1494003843.72,38171,16.25,73618.8,0.09,-1.17,-1.35,0,*78
1494003844.95,38172,16.25,73618.5,0.09,-1.13,-1.35,0,*7F
1494003846.15,38173,16.25,73620.3,0.09,-1.13,-1.29,0,*73
1494003847.38,38174,16.25,73616.5,0.09,-1.13,-1.35,0,*79
1494003848.58,38175,16.25,73618.8,0.09,-1.25,-1.35,0,*7D
1494003849.81,38176,16.25,73620.3,0.07,-1.25,-1.35,0,*70
1494003851.02,38177,16.25,73616.3,0.09,-1.25,-1.35,0,*7F
1494003852.22,38178,16.25,73616.5,0.09,-1.25,-1.35,0,*70
1494003853.45,38179,16.25,73618.5,0.07,-1.17,-1.35,0,*7E
1494003854.66,38180,16.25,73616.3,0.09,-1.25,-1.35,0,*77
1494003855.89,38181,16.31,73616.8,0.07,-1.25,-1.35,0,*78
1494003857.06,38182,16.25,73616.8,0.09,-1.25,-1.29,0,*78
1494003858.26,38183,16.25,73618.0,0.09,-1.25,-1.35,0,*74
1494003859.47,38184,16.25,73618.0,0.09,-1.29,-1.39,0,*73
1494003860.73,38185,16.25,73614.5,0.07,-1.35,-1.47,0,*78
1494003861.95,38186,16.25,73612.5,0.09,-1.35,-1.39,0,*7C
1494003863.16,38187,16.25,73614.0,0.09,-1.29,-1.39,0,*70
1494003864.4,38188,16.31,73614.5,0.07,-1.17,-1.39,0,*7C
1494003865.6,38189,16.25,73614.3,0.09,-1.25,-1.39,0,*72
1494003866.83,38190,16.31,73616.8,0.07,-1.25,-1.39,0,*74
1494003868.03,38191,16.25,73618.0,0.09,-1.25,-1.35,0,*77
1494003869.24,38192,16.25,73618.5,0.09,-1.25,-1.39,0,*78
1494003870.48,38193,16.25,73622.0,0.07,-1.17,-1.39,0,*76
1494003871.71,38194,16.25,73616.0,0.07,-1.25,-1.35,0,*7C
1494003872.91,38195,16.25,73616.0,0.09,-1.25,-1.35,0,*73
1494003874.08,38196,16.25,73618.8,0.09,-1.25,-1.29,0,*7D
1494003875.27,38197,16.31,73618.8,0.09,-1.17,-1.29,0,*7D
1494003876.47,38198,16.31,73618.5,0.09,-1.05,-1.29,0,*71
1494003877.7,38199,16.31,73618.3,0.09,-1.13,-1.35,0,*7A
1494003878.96,38200,16.31,73618.5,0.07,-1.13,-1.35,0,*77
1494003880.16,38201,16.25,73616.5,0.07,-1.25,-1.29,0,*7E
1494003881.37,38202,16.25,73614.8,0.09,-1.17,-1.35,0,*7F
1494003882.55,38203,16.31,73614.3,0.09,-1.17,-1.29,0,*73
1494003883.75,38204,16.25,73614.5,0.09,-1.13,-1.29,0,*70
1494003884.95,38205,16.25,73612.5,0.09,-1.13,-1.29,0,*71
1494003886.15,38206,16.25,73614.3,0.09,-1.13,-1.25,0,*7E
1494003887.35,38207,16.25,73614.0,0.09,-1.13,-1.29,0,*73
1494003888.58,38208,16.25,73616.0,0.09,-1.13,-1.35,0,*71
1494003889.81,38209,16.25,73614.3,0.07,-1.13,-1.29,0,*73
1494003891.01,38210,16.25,73614.3,0.09,-1.05,-1.25,0,*7E
1494003892.21,38211,16.25,73612.0,0.09,-1.13,-1.25,0,*78
1494003893.4,38212,16.25,73612.8,0.09,-1.13,-1.25,0,*7B
1494003894.61,38213,16.31,73614.0,0.09,-1.05,-1.29,0,*71
1494003895.82,38214,16.31,73616.8,0.07,-1.17,-1.29,0,*7B
1494003897.02,38215,16.25,73612.5,0.09,-1.13,-1.29,0,*70
1494003898.22,38216,16.31,73616.5,0.09,-1.13,-1.29,0,*73
1494003899.4,38217,16.25,73612.8,0.09,-1.17,-1.29,0,*76
1494003900.61,38218,16.25,73614.3,0.09,-1.17,-1.35,0,*74
1494003901.79,38219,16.25,73612.0,0.09,-1.17,-1.25,0,*74
1494003902.97,38220,16.25,73614.3,0.09,-1.17,-1.29,0,*72
1494003904.15,38221,16.25,73612.5,0.09,-1.17,-1.29,0,*73
1494003905.37,38222,16.25,73612.3,0.11,-1.09,-1.25,0,*4A
1494003906.6,38223,16.25,73618.3,0.11,-1.09,-1.25,0,*4B
1494003907.82,38224,16.25,73616.0,0.11,-1.09,-1.25,0,*4C
1494003909.02,38225,16.25,73616.0,0.09,-1.25,-1.47,0,*7E
1494003910.22,38226,16.25,73618.5,0.09,-1.25,-1.39,0,*74
1494003911.43,38227,16.25,73618.8,0.09,-1.29,-1.47,0,*70
1494003912.64,38228,16.25,73618.8,0.09,-1.29,-1.39,0,*76
1494003913.86,38229,16.25,73618.3,0.09,-1.35,-1.39,0,*7A
1494003915.07,38230,16.25,73616.3,0.09,-1.29,-1.47,0,*76
1494003916.27,38231,16.25,73616.0,0.09,-1.29,-1.39,0,*7E
1494003917.48,38232,16.31,73618.8,0.09,-1.29,-1.47,0,*74
1494003918.68,38233,16.25,73614.3,0.09,-1.25,-1.39,0,*70
1494003919.89,38234,16.25,73614.5,0.09,-1.17,-1.39,0,*76
1494003921.1,38235,16.25,73612.5,0.07,-1.17,-1.29,0,*78
1494003922.3,38236,16.31,73614.3,0.09,-1.13,-1.29,0,*71
1494003923.53,38237,16.25,73610.0,0.09,-1.13,-1.35,0,*7D
1494003924.7,38238,16.31,73612.3,0.09,-1.25,-1.29,0,*7A
1494003925.88,38239,16.25,73610.5,0.09,-1.17,-1.29,0,*7A
1494003927.1,38240,16.25,73610.8,0.13,-1.21,-1.33,0,*41
1494003928.31,38241,16.25,73608.3,0.09,-1.17,-1.35,0,*78
1494003929.51,38242,16.31,73614.3,0.09,-1.25,-1.35,0,*7A
1494003930.73,38243,16.25,73604.3,0.11,-1.13,-1.33,0,*41
1494003931.94,38244,16.31,73604.5,0.09,-1.17,-1.35,0,*7D
1494003933.15,38245,16.25,73608.8,0.09,-1.29,-1.35,0,*71
1494003934.38,38246,16.25,73612.5,0.11,-1.33,-1.43,0,*41
1494003935.61,38247,16.25,73612.0,0.09,-1.35,-1.39,0,*72
1494003936.85,38248,16.25,73614.0,0.11,-1.33,-1.35,0,*4E
1494003938.08,38249,16.25,73612.0,0.11,-1.25,-1.43,0,*49
1494003939.31,38250,16.25,73618.8,0.11,-1.25,-1.35,0,*40
1494003940.54,38251,16.25,73618.3,0.11,-1.33,-1.43,0,*47
1494003941.75,38252,16.31,73622.0,0.09,-1.29,-1.39,0,*7B
1494003942.98,38253,16.25,73622.0,0.09,-1.35,-1.47,0,*7E
1494003944.17,38254,16.25,73618.3,0.09,-1.35,-1.51,0,*7E
1494003945.41,38255,16.31,73616.8,0.07,-1.39,-1.63,0,*7C
1494003946.62,38256,16.25,73618.3,0.09,-1.39,-1.55,0,*74
1494003947.85,38257,16.25,73616.5,0.07,-1.39,-1.63,0,*7E
1494003949.06,38258,16.25,73616.5,0.09,-1.39,-1.55,0,*7A
1494003950.26,38259,16.25,73614.0,0.09,-1.39,-1.55,0,*7B
1494003951.46,38260,16.25,73618.5,0.09,-1.39,-1.55,0,*71
1494003952.67,38261,16.25,73616.5,0.09,-1.39,-1.63,0,*75
1494003953.87,38262,16.25,73618.0,0.09,-1.47,-1.67,0,*7B
1494003955.08,38263,16.25,73618.3,0.07,-1.55,-1.63,0,*73
1494003956.25,38264,16.25,73618.8,0.09,-1.51,-1.67,0,*7A
1494003957.43,38265,16.25,73616.3,0.09,-1.63,-1.67,0,*7A
1494003958.61,38266,16.25,73612.0,0.09,-1.55,-1.63,0,*78
1494003959.77,38267,16.25,73610.8,0.09,-1.51,-1.55,0,*78
1494003960.98,38268,16.25,73614.8,0.09,-1.39,-1.51,0,*7D
1494003962.21,38269,16.25,73614.0,0.09,-1.35,-1.47,0,*77
1494003963.41,38270,16.25,73626.3,0.09,-1.47,-1.51,0,*7D
1494003964.61,38271,16.25,73622.3,0.09,-1.39,-1.51,0,*75
1494003965.81,38272,16.31,73622.5,0.09,-1.47,-1.55,0,*7B
1494003967.02,38273,16.25,73618.0,0.07,-1.51,-1.67,0,*72
1494003968.25,38274,16.25,73618.0,0.07,-1.51,-1.87,0,*7B
1494003969.45,38275,16.25,73624.0,0.07,-1.75,-2.31,0,*72
1494003970.68,38276,16.25,73626.5,0.09,-1.91,-2.75,0,*75
1494003971.91,38277,16.25,73624.0,0.09,-1.99,-2.67,0,*7F
1494003973.18,38278,16.25,73624.3,0.11,-1.87,-2.51,0,*43
1494003974.4,38279,16.25,73624.5,0.11,-1.83,-2.27,0,*47
1494003975.63,38280,16.25,73624.5,0.11,-1.95,-2.35,0,*45
1494003976.83,38281,16.25,73622.0,0.09,-1.91,-2.31,0,*7D
1494003978.04,38282,16.25,73622.0,0.09,-1.87,-2.23,0,*7A
1494003979.24,38283,16.25,73622.3,0.09,-1.87,-2.27,0,*7F
1494003980.44,38284,16.31,73624.0,0.09,-1.87,-2.23,0,*7C
1494003981.64,38285,16.25,73620.5,0.09,-1.75,-1.99,0,*72
1494003982.85,38286,16.25,73616.8,0.09,-1.79,-1.99,0,*7D
1494003984.08,38287,16.25,73622.8,0.07,-1.67,-1.87,0,*72
1494003985.28,38288,16.25,73618.8,0.09,-1.67,-1.91,0,*74
1494003986.45,38289,16.25,73618.0,0.09,-1.63,-1.79,0,*77
1494003987.66,38290,16.25,73618.0,0.07,-1.55,-1.67,0,*7B
1494003988.86,38291,16.25,73618.0,0.09,-1.47,-1.63,0,*73
1494003990.07,38292,16.25,73616.0,0.09,-1.39,-1.55,0,*7C
1494003991.3,38293,16.25,73618.3,0.07,-1.39,-1.55,0,*73
1494003992.53,38294,16.31,73616.0,0.09,-1.35,-1.47,0,*75
1494003993.76,38295,16.25,73618.5,0.07,-1.29,-1.39,0,*7E
1494003994.99,38296,16.25,73616.3,0.07,-1.25,-1.35,0,*7D
1494003996.2,38297,16.25,73612.8,0.09,-1.25,-1.39,0,*7E
1494003997.4,38298,16.25,73612.0,0.09,-1.25,-1.39,0,*71
1494003998.6,38299,16.25,73612.0,0.09,-1.25,-1.39,0,*70
1494003999.81,38300,16.25,73614.5,0.09,-1.29,-1.39,0,*7D
1494004001.04,38301,16.25,73614.8,0.07,-1.25,-1.39,0,*7E
1494004002.24,38302,16.25,73614.3,0.09,-1.25,-1.39,0,*73
1494004003.48,38303,16.25,73610.8,0.07,-1.17,-1.39,0,*7D
1494004004.72,38304,16.25,73612.5,0.07,-1.17,-1.35,0,*76
1494004005.95,38305,16.25,73614.0,0.07,-1.25,-1.35,0,*76
1494004007.16,38306,16.25,73612.3,0.09,-1.17,-1.35,0,*7A
1494004008.4,38307,16.25,73612.5,0.07,-1.17,-1.39,0,*79
1494004009.6,38308,16.25,73614.8,0.09,-1.25,-1.39,0,*79
1494004010.8,38309,16.25,73612.5,0.09,-1.25,-1.39,0,*78
1494004012.0,38310,16.25,73618.3,0.09,-1.25,-1.39,0,*70
1494004013.21,38311,16.25,73612.8,0.09,-1.25,-1.39,0,*71
1494004014.42,38312,16.25,73612.3,0.09,-1.17,-1.35,0,*7F
1494004015.64,38313,16.25,73612.8,0.09,-1.13,-1.35,0,*7A
1494004016.82,38314,16.25,73612.5,0.09,-1.17,-1.29,0,*74
1494004018.02,38315,16.25,73612.3,0.09,-1.13,-1.25,0,*7D
1494004019.2,38316,16.25,73614.5,0.09,-1.17,-1.29,0,*76
1494004020.4,38317,16.25,73618.8,0.09,-1.25,-1.35,0,*7B
1494004021.61,38318,16.25,73620.3,0.09,-1.17,-1.35,0,*75
1494004022.81,38319,16.25,73618.3,0.09,-1.25,-1.35,0,*75
1494004024.02,38320,16.25,73614.5,0.09,-1.29,-1.39,0,*7F
1494004025.22,38321,16.25,73616.0,0.09,-1.25,-1.39,0,*72
1494004026.42,38322,16.25,73614.8,0.09,-1.25,-1.39,0,*71
1494004027.66,38323,16.25,73618.8,0.07,-1.25,-1.47,0,*77
1494004028.86,38324,16.25,73616.8,0.09,-1.29,-1.39,0,*7B
1494004030.07,38325,16.25,73618.8,0.09,-1.29,-1.39,0,*7A
1494004031.27,38326,16.25,73614.3,0.09,-1.25,-1.39,0,*75
1494004032.47,38327,16.25,73616.5,0.09,-1.25,-1.39,0,*74
1494004033.67,38328,16.25,73618.3,0.09,-1.25,-1.35,0,*77
1494004034.88,38329,16.25,73616.8,0.09,-1.17,-1.35,0,*77
1494004036.12,38330,16.25,73618.5,0.07,-1.17,-1.35,0,*71
1494004037.36,38331,16.25,73620.3,0.07,-1.17,-1.35,0,*70
1494004038.54,38332,16.25,73622.0,0.09,-1.17,-1.29,0,*70
1494004039.75,38333,16.25,73622.0,0.09,-1.17,-1.35,0,*7C
1494004040.95,38334,16.25,73626.5,0.09,-1.13,-1.29,0,*72
1494004042.15,38335,16.25,73622.3,0.09,-1.13,-1.29,0,*73
1494004043.33,38336,16.25,73618.3,0.09,-1.17,-1.29,0,*74
1494004044.5,38337,16.25,73620.3,0.09,-1.25,-1.29,0,*74
1494004045.7,38338,16.25,73620.5,0.09,-1.25,-1.35,0,*76
1494004046.94,38339,16.25,73618.0,0.07,-1.13,-1.29,0,*71
1494004048.17,38340,16.25,73618.5,0.07,-1.13,-1.29,0,*7F
1494004049.37,38341,16.25,73620.0,0.09,-1.13,-1.29,0,*70
1494004050.57,38342,16.25,73620.3,0.09,-1.05,-1.29,0,*74
1494004051.77,38343,16.25,73622.3,0.09,-1.05,-1.25,0,*79
1494004052.97,38344,16.25,73622.5,0.09,-1.13,-1.25,0,*79
1494004054.17,38345,16.25,73626.0,0.09,-1.13,-1.25,0,*78
1494004055.4,38346,16.25,73622.0,0.09,-1.13,-1.35,0,*7A
1494004056.6,38347,16.25,73622.5,0.09,-1.17,-1.35,0,*7F
1494004057.81,38348,16.25,73622.5,0.09,-1.17,-1.35,0,*70
1494004059.01,38349,16.25,73622.0,0.09,-1.25,-1.35,0,*70
1494004060.25,38350,16.25,73622.0,0.07,-1.17,-1.35,0,*77
1494004061.45,38351,16.25,73622.8,0.09,-1.13,-1.29,0,*71
1494004062.68,38352,16.25,73622.3,0.09,-1.13,-1.35,0,*7F
1494004063.88,38353,16.25,73618.0,0.09,-1.05,-1.29,0,*74
1494004065.09,38354,16.25,73620.8,0.09,-1.17,-1.35,0,*7D
1494004066.3,38355,16.25,73622.0,0.09,-1.17,-1.35,0,*7C
1494004067.5,38356,16.25,73626.0,0.09,-1.25,-1.35,0,*7E
1494004068.7,38357,16.25,73622.5,0.09,-1.25,-1.39,0,*73
1494004069.91,38358,16.25,73622.3,0.09,-1.29,-1.39,0,*70
1494004071.12,38359,16.25,73620.5,0.09,-1.29,-1.39,0,*71
1494004072.32,38360,16.25,73618.8,0.09,-1.25,-1.39,0,*77
1494004073.53,38361,16.25,73620.8,0.09,-1.17,-1.39,0,*77
1494004074.73,38362,16.25,73622.0,0.09,-1.17,-1.35,0,*78
1494004075.96,38363,16.25,73622.0,0.09,-1.13,-1.35,0,*7D
1494004077.14,38364,16.25,73624.5,0.09,-1.17,-1.29,0,*73
1494004078.35,38365,16.25,73624.5,0.09,-1.17,-1.35,0,*7F
1494004079.53,38366,16.25,73624.0,0.09,-1.17,-1.29,0,*71
1494004080.74,38367,16.25,73620.0,0.09,-1.17,-1.35,0,*7D
1494004081.92,38368,16.25,73622.3,0.09,-1.17,-1.29,0,*7F
1494004083.15,38369,16.25,73622.8,0.09,-1.13,-1.35,0,*77
1494004084.36,38370,16.25,73622.3,0.09,-1.17,-1.35,0,*7B
1494004085.56,38371,16.25,73626.8,0.09,-1.17,-1.35,0,*7A
1494004086.77,38372,16.25,73622.8,0.11,-1.21,-1.33,0,*43
1494004088.0,38373,16.25,73626.5,0.11,-1.13,-1.33,0,*43
1494004089.22,38374,16.25,73622.3,0.11,-1.09,-1.33,0,*4F
1494004090.42,38375,16.25,73626.0,0.09,-1.13,-1.29,0,*77
1494004091.63,38376,16.25,73622.0,0.09,-1.13,-1.29,0,*74
1494004092.83,38377,16.25,73620.0,0.09,-1.05,-1.29,0,*72
1494004094.06,38378,16.25,73624.3,0.11,-1.01,-1.25,0,*4C
1494004095.26,38379,16.25,73626.3,0.09,-1.13,-1.29,0,*7B
1494004096.46,38380,16.25,73626.0,0.09,-1.13,-1.29,0,*7D
1494004097.64,38381,16.25,73620.3,0.09,-1.17,-1.29,0,*78
1494004098.82,38382,16.25,73618.5,0.09,-1.17,-1.29,0,*7B
1494004100.03,38383,16.25,73620.0,0.09,-1.17,-1.35,0,*77
1494004101.26,38384,16.25,73618.8,0.09,-1.13,-1.35,0,*74
1494004102.47,38385,16.25,73622.3,0.09,-1.17,-1.35,0,*71
1494004103.67,38386,16.25,73618.8,0.09,-1.17,-1.35,0,*72
1494004104.85,38387,16.25,73620.8,0.09,-1.17,-1.29,0,*7E
1494004106.06,38388,16.25,73620.8,0.09,-1.17,-1.35,0,*7C
1494004107.3,38389,16.25,73622.0,0.13,-1.13,-1.33,0,*44
1494004108.5,38390,16.25,73620.8,0.09,-1.17,-1.35,0,*75